Location: Leipa
(51.8333°N, 12.6000°E)
Time: 20:49:01
(UTC+00:00)

Daily predictions for brighter satellites

Satellite Brightness Start Highest point End
(mag) Time Altitude Azimuth Time Altitude Azimuth Time Altitude Azimuth
Cosmos 1833 Rocket 3.3 16:34:02 10° NNW 16:39:13 36° NE 16:44:22 10° ESE
Unknown 3.9 16:36:02 10° SW 16:40:08 60° SSE 16:44:14 10° ENE
ATLAS CENTAUR R/B 3.7 16:37:01 10° NW 16:40:17 18° N 16:43:28 10° NE
Unknown 3.8 16:37:42 10° SW 16:41:48 61° SSE 16:45:54 10° ENE
Unknown 3.8 16:39:21 10° WSW 16:43:27 63° SSE 16:47:34 10° ENE
Cosmos 1271 Rocket 2.7 16:40:57 10° N 16:44:57 79° ENE 16:48:56 10° SSE
Unknown 3.8 16:42:38 10° WSW 16:46:45 65° SSE 16:50:52 10° ENE
Unknown 3.4 16:43:51 10° W 16:47:36 75° N 16:51:21 10° E
Unknown 3.7 16:44:02 10° WSW 16:48:08 67° SSE 16:52:16 10° ENE
SKYMED 2 4.3 16:44:33 10° NNE 16:48:32 33° E 16:52:27 10° SSE
Unknown 3.7 16:44:32 10° WSW 16:48:40 71° SSE 16:52:48 10° ENE
CZ-4 R/B 1.7 16:45:51 10° SE 16:49:52 47° ENE 16:53:57 10° N
Unknown 3.7 16:46:10 10° WSW 16:50:18 71° SSE 16:54:27 10° ENE
Unknown 3.7 16:49:17 10° WSW 16:53:24 69° SSE 16:57:31 10° ENE
YAOGAN 1 2.9 16:50:43 10° SE 16:54:49 43° ENE 16:58:56 10° N
CZ-2D R/B 4.4 16:51:51 10° ESE 16:55:01 25° ENE 16:58:13 10° N
Unknown 3.7 16:52:35 10° WSW 16:56:43 71° SSE 17:00:42 11° ENE
Cosmos 2227 Rocket 4.5 16:54:20 10° NW 16:57:04 13° NNW 16:59:49 10° N
Unknown 3.6 16:53:44 10° WSW 16:57:50 76° SSE 17:01:44 11° ENE
H-2A R/B 3.8 16:55:23 10° E 16:58:11 15° NE 17:01:01 10° NNE
Unknown 3.7 16:54:17 10° WSW 16:58:24 73° SSE 17:02:20 11° ENE
Meteor 2-10 4.4 16:53:56 10° SSE 16:58:33 37° E 17:03:10 10° NNE
Unknown 3.7 16:55:54 10° WSW 17:00:02 74° SSE 17:03:54 12° ENE
Unknown 3.6 16:56:22 10° WSW 17:00:26 85° SSE 17:04:12 12° ENE
Unknown 3.7 16:57:34 10° WSW 17:01:43 75° SSE 17:05:31 12° ENE
Cosmos 2082 Rocket 2.8 16:58:03 10° NNW 17:03:24 38° NE 17:08:41 10° ESE
CZ-4 R/B 4.4 16:59:41 10° SSE 17:03:46 67° ENE 17:07:53 10° N
H-2A R/B 4.0 17:00:01 10° S 17:03:47 47° W 17:07:37 10° NNW
Unknown 3.5 17:01:34 10° W 17:05:24 76° N 17:08:42 14° E
Cosmos 1726 Rocket 3.5 17:01:21 10° S 17:05:42 69° E 17:10:03 10° NNE
Cosmos 2228 3.0 17:03:12 10° S 17:07:34 76° E 17:11:55 10° NNE
Unknown 3.6 17:04:09 10° WSW 17:08:18 79° SSE 17:11:50 14° ENE
Unknown 3.6 17:05:53 10° WSW 17:10:02 80° SSE 17:13:30 14° ENE
Cosmos 1703 3.3 17:06:14 10° N 17:10:09 59° ENE 17:14:02 10° SSE
Gbstr 26 Del rocket 4.1 17:04:34 10° W 17:10:22 80° SSW 17:17:14 11° ESE
ASTEX 1 3.4 17:05:33 10° NNE 17:10:29 62° E 17:15:24 10° S
YAOGAN 6 2.5 17:07:01 10° SSE 17:10:40 69° ENE 17:14:17 10° N
CSL-04 Debris 4.2 17:05:31 10° SSE 17:10:56 68° ENE 17:16:24 10° NNW
COSMOS 2406 3.3 17:05:18 10° NNW 17:11:07 87° WSW 17:16:53 10° SSE
Shenzhou-11 Module 4.3 17:09:43 10° SSW 17:11:12 13° S 17:12:40 10° SSE
Unknown 3.6 17:07:30 10° WSW 17:11:40 81° SSE 17:15:04 15° ENE
Envisat 3.1 17:07:09 10° SSE 17:12:14 82° WSW 17:17:22 10° NNW
Unknown 3.6 17:09:10 10° WSW 17:13:19 82° SSE 17:16:39 15° ENE
Unknown 3.6 17:10:50 10° WSW 17:14:59 83° SSE 17:18:15 16° ENE
Unknown 3.5 17:11:37 10° W 17:15:31 77° N 17:18:30 17° ENE
Cosmos 2084 3.5 17:11:56 10° SW 17:16:28 87° SE 17:20:56 10° NE
Cosmos 921 Rocket 3.0 17:12:26 10° S 17:16:55 70° ESE 17:21:22 10° NNE
EO 1 Delta rocket 4.0 17:12:27 10° SSE 17:16:57 56° ENE 17:21:54 10° N
FALCON 9 DEB 3.1 17:14:23 10° WNW 17:17:52 84° N 17:20:20 18° E
Unknown 3.6 17:14:10 10° WSW 17:18:20 85° SSE 17:21:29 17° ENE
Cosmos 292 Rocket 3.9 17:15:02 10° S 17:19:35 48° ESE 17:24:10 10° NE
Unknown 3.0 17:16:11 10° WNW 17:19:36 90° NNE 17:21:58 19° ESE
Starlink (trailer) 3.6 17:15:49 10° WSW 17:19:58 86° SSE 17:23:03 18° ENE
Unknown 3.6 17:17:28 10° WSW 17:21:37 87° S 17:24:39 18° ENE
Unknown 3.6 17:19:07 10° WSW 17:23:16 87° SSE 17:26:14 19° ENE
Cosmos 1844 Rocket 2.9 17:17:44 10° SW 17:23:24 77° WNW 17:29:04 10° NNE
Cosmos 2058 Rocket 3.0 17:19:15 10° S 17:23:34 69° E 17:27:56 10° NNE
Cosmos 2058 4.2 17:20:31 10° NNE 17:23:53 22° ENE 17:25:23 19° E
Cosmos 1356 3.4 17:21:21 10° S 17:24:44 59° E 17:28:09 10° NNE
Cosmos 1953 3.3 17:22:18 10° SSW 17:26:17 51° WNW 17:30:17 10° N
Unknown 3.1 17:23:14 10° WNW 17:26:46 84° NNE 17:28:53 22° E
SJ-6B 4.4 17:27:58 17° ENE 17:27:58 17° ENE 17:30:23 10° NNE
Unknown 3.6 17:25:27 10° WSW 17:29:36 89° NNW 17:32:18 21° ENE
Unknown 3.6 17:25:46 10° WSW 17:29:56 89° NNW 17:32:37 21° ENE
Unknown 3.6 17:26:24 10° WSW 17:30:34 89° NNW 17:33:14 22° ENE
USA 116 3.4 17:28:12 10° NNE 17:31:16 47° ESE 17:34:28 10° S
Okean-O 4.5 17:27:21 10° SSW 17:31:23 34° W 17:35:29 10° NNW
Meteor 1-11 4.2 17:25:48 10° NNW 17:31:36 84° ENE 17:37:25 10° SSE
Unknown 3.6 17:30:01 10° WSW 17:34:10 87° NNW 17:36:41 23° ENE
Unknown 3.6 17:30:48 10° WSW 17:34:57 87° NNW 17:37:27 23° ENE
Falcon 9 debris 3.1 17:32:51 10° WNW 17:36:18 82° SSW 17:38:02 27° ESE
BREEZE-M DEB (TANK) 4.1 17:32:16 10° W 17:36:32 62° SSW 17:47:33 11° ESE
Unknown 3.6 17:32:33 10° WSW 17:36:44 85° N 17:39:09 24° ENE
COSMO-SKYMED 1 2.6 17:32:24 10° NNE 17:36:47 89° W 17:41:08 10° SSW
Cosmos 1605 Rocket 3.9 17:31:43 10° N 17:37:59 83° E 17:44:07 10° SSE
Meteor 1-16 Rocket 4.2 17:32:35 10° SSW 17:38:07 85° WNW 17:43:33 10° NNE
Lacrosse 5 1.8 17:33:12 10° WNW 17:38:18 84° NNE 17:41:42 21° ESE
SJ 16-02 2.8 17:36:42 10° N 17:39:54 19° NE 17:40:24 19° ENE
Unknown 3.6 17:35:53 10° W 17:40:03 84° N 17:42:20 26° ENE
Unknown 3.6 17:36:11 10° W 17:40:20 85° NNW 17:42:37 26° ENE
Unknown 3.6 17:37:26 10° W 17:41:37 84° N 17:43:50 27° ENE
USA 238 DEB 4.3 17:36:29 10° S 17:42:17 32° ESE 17:46:22 18° ENE
Cosmos 1908 3.1 17:38:28 10° S 17:42:21 69° E 17:46:15 10° NNE
USA 238 4.3 17:36:37 10° S 17:42:23 32° ESE 17:46:25 18° ENE
Unknown 3.6 17:40:37 10° W 17:44:46 84° NNW 17:46:52 28° ENE
Cosmos 2278 Rocket 2.4 17:41:54 10° S 17:47:22 50° ESE 17:52:50 10° NE
Unknown 3.6 17:44:05 10° W 17:48:14 82° N 17:50:12 30° ENE
ATLAS 5 CENTAUR R/B 2.7 17:44:10 10° WSW 17:48:28 45° NNW 17:53:17 11° NE
MOS 1 4.4 17:43:06 10° SE 17:48:33 52° ENE 17:54:01 10° N
Unknown 3.1 17:45:53 10° WNW 17:49:24 79° SSW 17:50:40 37° ESE
Unknown 3.6 17:45:45 10° W 17:49:55 81° N 17:51:48 32° ENE
Cosmos 1727 Rocket 4.0 17:44:49 10° SSE 17:50:47 54° E 17:56:47 10° NNE
Unknown 3.6 17:47:23 10° W 17:51:34 81° N 17:53:23 33° ENE
FREGAT/IRIS 4.4 17:53:20 18° NNE 17:53:20 18° NNE 17:54:23 10° N
Cosmos 1844 4.2 17:47:07 10° SW 17:52:47 62° NW 17:58:33 10° NNE
IRS-1A Rocket 4.1 17:47:42 10° SSE 17:53:10 69° ENE 17:58:40 10° NNW
Unknown 3.6 17:49:04 10° W 17:53:13 80° N 17:54:59 34° ENE
Resurs 01 Rocket 3.5 17:55:09 16° NE 17:55:09 16° NE 17:57:04 10° NNE
Ariane Rocket 2.9 17:49:44 10° SSE 17:54:49 77° ENE 17:59:57 10° NNW
Okean 3 Rocket 4.4 17:52:26 10° N 17:56:31 31° ENE 17:56:45 31° ENE
Unknown 3.6 17:52:26 10° W 17:56:36 79° N 17:58:12 36° ENE
Cosmos 1802 Rocket 4.4 17:51:00 10° N 17:57:08 43° ENE 18:01:02 21° SE
Cosmos 2173 Rocket 4.1 17:51:35 10° N 17:57:42 50° ENE 18:02:38 15° SE
Unknown 3.6 17:54:09 10° W 17:58:18 79° N 17:59:51 37° ENE
Cosmos 1939 Rocket 2.8 17:55:48 10° SSE 17:59:48 85° WSW 18:03:54 10° NNW
Unknown 3.6 17:55:44 10° W 17:59:54 78° N 18:01:22 39° ENE
Abrixas rocket 3.9 17:59:07 10° SSW 18:00:46 19° S 18:00:46 19° S
Unknown 3.6 17:57:22 10° W 18:01:32 78° N 18:02:57 40° ENE
Unknown 3.6 17:57:49 10° W 18:01:58 78° N 18:03:22 40° ENE
Cosmos 1461 3.1 17:57:56 10° NW 18:01:59 66° SW 18:04:27 23° SSE
Unknown 3.6 18:00:32 10° W 18:04:41 78° N 18:05:58 43° ENE
NOSS 3-2 (A) 3.9 18:02:04 10° S 18:07:18 35° ESE 18:08:34 32° E
Unknown 3.6 18:03:55 10° W 18:08:05 77° N 18:09:13 46° ENE
Unknown 3.6 18:05:33 10° W 18:09:42 77° N 18:10:46 48° ENE
Cosmos 2084 Rocket 3.4 18:05:20 10° NW 18:09:47 77° NE 18:11:04 45° ESE
Cosmos 1726 3.5 18:06:28 10° SW 18:09:54 39° WNW 18:13:23 10° N
Cosmos 1937 Rocket 4.0 18:05:39 10° NNW 18:10:26 37° NE 18:11:09 35° ENE
NOSS 3-3 (A) 4.5 18:03:54 10° NW 18:11:15 90° W 18:16:52 22° SE
NOSS 3-3 (C) 4.5 18:04:00 10° NW 18:11:21 90° ENE 18:16:55 23° SE
Unknown 3.6 18:07:27 10° W 18:11:37 76° N 18:12:37 50° ENE
Unknown 3.6 18:08:50 10° W 18:13:00 76° N 18:13:56 51° ENE
Unknown 3.6 18:10:32 10° W 18:14:41 76° N 18:15:34 53° ENE
HJ-1C 3.4 18:14:01 40° S 18:15:06 79° WSW 18:18:29 10° NNW
Cosmos 990 Rocket 4.2 18:11:04 10° NNW 18:16:08 50° ENE 18:17:11 43° E
Cosmos 1725 Rocket 4.4 18:11:10 10° N 18:17:04 41° ENE 18:18:21 37° E
Unknown 3.6 18:13:54 10° W 18:18:03 75° N 18:18:48 57° ENE
Cosmos 1892 4.3 18:14:35 10° N 18:16:22 22° NNE 18:16:22 22° NNE
SPOT 3 Rocket 3.6 18:17:55 41° ESE 18:19:22 54° ENE 18:24:28 10° N
Unknown 3.6 18:15:34 10° W 18:19:44 75° N 18:20:24 59° ENE
Cosmos 2100 Rocket 3.8 18:14:02 10° N 18:20:17 74° E 18:25:37 14° SSE
ARGOS 3.4 18:19:45 42° E 18:20:45 47° ENE 18:25:57 10° N
ATLAS CENTAUR R/B 3.3 18:17:24 10° NNW 18:20:51 20° NNE 18:21:38 19° NNE
Unknown 3.6 18:17:14 10° W 18:21:24 75° N 18:22:00 61° ENE
Cosmos 1812 Rocket 3.4 18:17:16 10° S 18:21:42 82° E 18:26:11 10° NNE
Unknown 3.6 18:18:54 10° W 18:23:03 75° N 18:23:35 63° NE
Cosmos 1833 Rocket 3.4 18:17:55 10° NW 18:23:24 54° WSW 18:28:50 10° S
Cosmos 1076 Rocket 3.6 18:19:54 10° NNW 18:24:17 79° W 18:27:00 23° S
CZ-4 R/B 4.0 18:21:50 10° SW 18:25:07 22° W 18:28:27 10° NW
Unknown 3.2 18:22:00 10° WNW 18:25:43 87° WNW 18:25:43 87° WNW
SJ-11-01 4.1 18:24:11 37° SSE 18:26:04 80° ENE 18:30:46 10° NNW
Unknown 3.5 18:22:13 10° W 18:26:22 74° N 18:26:45 67° NE
Unknown 3.5 18:23:37 10° W 18:27:46 74° N 18:28:06 69° NE
BREEZE-M DEB (TANK) 3.5 18:20:44 10° SW 18:27:55 36° SSE 18:27:59 36° SSE
Unknown 3.5 18:24:10 10° W 18:28:18 74° N 18:28:37 69° NE
Unknown 3.6 18:25:48 10° W 18:29:58 74° N 18:30:12 71° NNE
Unknown 3.6 18:28:54 10° W 18:33:03 74° N 18:33:10 73° NNE
Unknown 3.6 18:32:13 10° W 18:36:21 74° N 18:36:21 74° N
H-2A R/B 2.1 18:35:44 55° ESE 18:36:36 64° ENE 18:41:59 10° N
Unknown 3.6 18:33:13 10° W 18:37:13 73° NNW 18:37:13 73° NNW
Unknown 3.6 18:33:55 10° W 18:37:59 74° NNW 18:37:59 74° NNW
Unknown 3.7 18:35:33 10° W 18:39:33 73° NNW 18:39:33 73° NNW
Unknown 3.7 18:35:42 10° W 18:39:29 71° NW 18:39:29 71° NW
Unknown 3.7 18:37:14 10° W 18:41:10 71° NNW 18:41:10 71° NNW
Cosmos 2016 Rocket 3.9 18:35:31 10° N 18:41:47 70° ENE 18:43:50 44° SSE
Unknown 3.9 18:40:04 10° WNW 18:43:14 58° WNW 18:43:14 58° WNW
ADEOS Rocket 3.5 18:37:26 10° NNE 18:45:04 56° E 18:52:12 10° S
Meteor 2-1 Rocket 4.0 18:40:13 10° S 18:45:41 71° E 18:51:16 10° NNE
Cosmos 2082 Rocket 2.9 18:42:10 10° NW 18:47:42 51° WSW 18:51:05 23° S
Unknown 3.9 18:43:50 10° W 18:47:29 64° NW 18:47:29 64° NW
SL-08 R/B 4.3 18:41:53 10° N 18:48:00 66° ENE 18:48:52 59° ESE
Cosmos 2297 Rocket 4.5 18:47:30 10° N 18:49:28 12° NNE 18:51:09 10° NNE
Unknown 4.0 18:45:34 10° W 18:49:09 62° NW 18:49:09 62° NW
Unknown 4.1 18:47:12 10° W 18:50:43 60° WNW 18:50:43 60° WNW
Unknown 4.1 18:48:51 10° W 18:52:18 58° WNW 18:52:18 58° WNW
Unknown 4.4 18:50:23 10° WNW 18:53:16 48° WNW 18:53:16 48° WNW
Unknown 4.2 18:50:32 10° W 18:53:54 56° WNW 18:53:54 56° WNW
Cosmos 2151 3.8 18:50:51 10° N 18:53:49 43° N 18:53:49 43° N
Cosmos 1898 Rocket 3.4 18:50:53 10° NNW 18:56:11 82° WSW 18:56:41 72° S
Unknown 4.3 18:53:53 10° W 18:57:08 52° WNW 18:57:08 52° WNW
Starlink (trailer) 4.4 18:55:31 10° W 18:58:42 50° WNW 18:58:42 50° WNW
Cosmos 2058 3.9 18:56:59 10° NNW 19:01:02 45° W 19:01:38 42° WSW
Unknown 4.5 18:57:11 10° W 19:00:18 48° WNW 19:00:18 48° WNW
Cosmos 2061 Rocket 3.9 18:55:46 10° NNW 19:02:04 84° W 19:04:09 45° S
SJ-6B 4.2 19:03:36 35° NW 19:03:36 35° NW 19:05:59 10° NNW
ATLAS 3B R/B 4.4 19:00:05 10° S 19:01:17 15° S 19:01:17 15° S
CZ-2C R/B 3.2 19:12:02 77° NNE 19:12:02 77° NNE 19:17:32 10° NNW
SJ 16-02 2.6 19:14:37 10° NNW 19:17:24 38° NW 19:17:24 38° NW
MetOp-A 4.5 19:20:59 58° N 19:20:59 58° N 19:25:17 10° NNW
Lacrosse 5 3.3 19:16:32 10° WNW 19:20:54 30° SW 19:20:55 30° SW
Resurs 01 Rocket 3.5 19:32:44 26° NNW 19:32:44 26° NNW 19:34:43 10° NNW
Cosmos 2278 Rocket 3.5 19:26:20 10° WSW 19:31:38 38° NW 19:36:57 10° NNE
USA 238 DEB 3.7 19:25:55 10° SW 19:32:40 77° NW 19:33:52 62° NNE
USA 238 3.7 19:26:02 10° SW 19:32:48 77° NW 19:33:55 63° NNE
ATLAS 5 CENTAUR R/B 3.7 19:30:25 10° WNW 19:34:20 24° N 19:34:49 24° N
Cosmos 1238 Rocket 4.4 19:29:47 10° N 19:35:10 58° NNE 19:35:10 58° NNE
Cosmos 2123 Rocket 4.5 19:56:11 56° NW 19:56:11 56° NW 20:01:30 10° N
NOSS 3-2 (A) 4.2 19:51:46 10° WSW 19:56:02 47° W 19:56:02 47° W
ATLAS CENTAUR R/B 4.0 19:56:25 10° NW 19:57:49 19° NNW 19:57:49 19° NNW
H-2A R/B 4.0 20:16:22 24° W 20:16:29 24° W 20:20:49 10° NW
Cosmos 2227 Rocket 4.4 20:25:46 10° NNW 20:27:46 18° N 20:27:46 18° N
ADEOS Rocket 4.5 20:23:08 10° N 20:30:20 43° WNW 20:37:11 10° SW
Cosmos 2297 Rocket 4.4 20:31:04 10° NNW 20:32:56 18° N 20:32:56 18° N
